Detroit Metro, MI

3:59 PM EDT on April 27, 2017 (GMT -0400)
Detroit Metro Wayne County

Weather History for KDTW - August, 2013

Change the Weather History Date:

Thursday, August 29, 2013

  Actual Average Record
Temperature  
Mean Temperature 78 °F 70 °F  
Max Temperature 88 °F 80 °F 96 °F (1953)
Min Temperature 68 °F 61 °F 38 °F (1982)
Degree Days  
Heating Degree Days 0 1  
Month to date heating degree days 8 1  
Since 1 June heating degree days 35 38  
Since 1 July heating degree days 12 3  
Cooling Degree Days 13 6  
Month to date cooling degree days 203 213  
Year to date cooling degree days 769 699  
Since 1 June cooling degree days 666 651  
Growing Degree Days 28 (Base 50)    
Moisture  
Dew Point 68 °F    
Average Humidity 74    
Maximum Humidity 90    
Minimum Humidity 57    
Precipitation  
Precipitation T in 0.10 in 1.73 in (1975)
Month to date precipitation 3.89 2.81  
Year to date precipitation 28.89 22.24  
Snow  
Snow 0.00 in 0.00 in 0.00 in ()
Month to date snowfall 0.0 0.0  
Since 1 June snowfall 0.0 0.0  
Since 1 July snowfall 0.0 0.0  
Snow Depth 0.00 in    
Sea Level Pressure  
Sea Level Pressure 30.04 in    
Wind  
Wind Speed 5 mph (NE)    
Max Wind Speed 13 mph    
Max Gust Speed 16 mph    
Visibility 9 miles    
Events Rain , Thunderstorm    
T = Trace of Precipitation, MM = Missing Value Source: NWS Daily Summary

Daily Weather History Graph

Daily Weather History Graph

Search for Another Location

Airport or City:

Trip Planner

Search our weather history database for the weather conditions in past years. The results will help you decide how hot, cold, wet, or windy it might be!

Date:

Astronomy

Aug. 29, 2013 Rise Set
Actual Time 6:55 AM EDT 8:11 PM EDT
Civil Twilight 6:26 AM EDT 8:40 PM EDT
Nautical Twilight 5:52 AM EDT 9:15 PM EDT
Astronomical Twilight 5:15 AM EDT 9:51 PM EDT
Moon 12:43 AM EDT (8/29) 3:43 PM EDT (8/29)
Length of Visible Light 14h 13m
Length of Day
13h 15m
Last Quarter, 38% of the Moon is Illuminated
Aug 29
Last Quarter
Sep 5
New
Sep 12
First Quarter
Sep 19
Full
Sep 26
Last Quarter

Hourly Weather History & Observations

Time (EDT) Temp. Heat Index Dew Point Humidity Pressure Visibility Wind Dir Wind Speed Gust Speed Precip Events Conditions
12:53 AM 72.0 °F - 66.9 °F 84% 30.01 in 10.0 mi North 4.6 mph - N/A   Clear
1:53 AM 71.1 °F - 66.9 °F 87% 30.02 in 10.0 mi North 3.5 mph - N/A   Clear
2:53 AM 70.0 °F - 66.9 °F 90% 30.01 in 10.0 mi North 4.6 mph - N/A   Clear
3:53 AM 69.1 °F - 66.0 °F 90% 30.01 in 10.0 mi NNW 3.5 mph - N/A   Clear
4:53 AM 69.1 °F - 66.0 °F 90% 30.01 in 10.0 mi North 4.6 mph - N/A   Clear
5:53 AM 69.1 °F - 66.0 °F 90% 30.02 in 10.0 mi NNW 3.5 mph - N/A   Clear
6:53 AM 68.0 °F - 64.9 °F 90% 30.04 in 9.0 mi NNW 4.6 mph - N/A   Partly Cloudy
7:53 AM 70.0 °F - 66.0 °F 87% 30.06 in 8.0 mi North 6.9 mph - N/A   Partly Cloudy
8:53 AM 72.0 °F - 66.0 °F 81% 30.07 in 10.0 mi North 6.9 mph - N/A   Partly Cloudy
9:53 AM 75.9 °F - 68.0 °F 76% 30.08 in 10.0 mi North 4.6 mph - N/A   Clear
10:53 AM 79.0 °F - 69.1 °F 72% 30.07 in 10.0 mi ESE 4.6 mph - N/A   Clear
11:53 AM 82.0 °F 85.9 °F 70.0 °F 67% 30.08 in 10.0 mi Calm Calm - N/A   Partly Cloudy
12:53 PM 84.0 °F 88.4 °F 70.0 °F 63% 30.07 in 10.0 mi SE 5.8 mph - N/A   Scattered Clouds
1:53 PM 84.0 °F 87.0 °F 68.0 °F 58% 30.05 in 10.0 mi Variable 5.8 mph - N/A   Mostly Cloudy
2:53 PM 84.9 °F 88.2 °F 68.0 °F 57% 30.05 in 10.0 mi East 4.6 mph - N/A   Mostly Cloudy
3:53 PM 86.0 °F 90.1 °F 69.1 °F 57% 30.04 in 10.0 mi SSE 5.8 mph - N/A   Mostly Cloudy
4:53 PM 84.0 °F 88.4 °F 70.0 °F 63% 30.04 in 10.0 mi SSE 9.2 mph 16.1 mph N/A   Mostly Cloudy
5:27 PM 82.4 °F 86.3 °F 69.8 °F 66% 30.05 in 10.0 mi SSE 8.1 mph - N/A Thunderstorm Thunderstorm
5:53 PM 77.0 °F - 70.0 °F 79% 30.04 in 10.0 mi WNW 11.5 mph - 0.00 in Rain , Thunderstorm Light Thunderstorms and Rain
6:16 PM 78.8 °F - 69.8 °F 74% 30.05 in 9.0 mi WSW 5.8 mph - 0.00 in Rain Light Rain
6:53 PM 81.0 °F 84.9 °F 71.1 °F 72% 30.03 in 8.0 mi SSE 5.8 mph - 0.00 in   Mostly Cloudy
7:53 PM 80.1 °F 83.2 °F 70.0 °F 71% 30.03 in 9.0 mi SSE 4.6 mph - N/A   Scattered Clouds
8:53 PM 78.1 °F - 68.0 °F 71% 30.05 in 9.0 mi South 4.6 mph - 0.00 in   Scattered Clouds
9:53 PM 77.0 °F - 66.9 °F 71% 30.05 in 9.0 mi Calm Calm - N/A   Partly Cloudy
10:53 PM 75.0 °F - 68.0 °F 79% 30.03 in 7.0 mi SSE 3.5 mph - N/A   Scattered Clouds
11:53 PM 73.0 °F - 68.0 °F 84% 30.01 in 7.0 mi Calm Calm - N/A   Partly Cloudy